Home > Time Zones > World Clock > Weather > India > Siwan > Past weeks

Flag for India Weather past 2 weeks in Siwan, Bihar, India

Now
68 °F

Haze.


Feels Like: 68 °F
Forecast: 48 / 74 °F
Wind: No wind

Location: Varanasi / Babatpur

Current Time: Feb 1, 2015 at 6:46:24 PM

Latest Report: Feb 1, 2015 at 5:00 PM


Visibility: 2 mi

Pressure: 30.04 "Hg

Humidity: 46%

Dew point: 46 °F

Location of SiwanLocation

Historic Weather in Siwan — Graph

°F

Siwan temperature yesterday

Maximum temperature yesterday: 70 °F (at 3:00 PM)
Minimum temperature yesterday: 46 °F (at 7:00 AM)
Average temperature yesterday: 58 °F

Past Weeks' High & Low Weather Summary

 TemperatureHumidityPressure
High73 °F (Jan 23, 3:00 PM)100% (Jan 17, 10:00 PM)30.24 "Hg (Jan 17, 10:00 PM)
Low41 °F (Jan 21, 6:00 AM)36% (Feb 1, 3:00 PM)29.89 "Hg (Jan 22, 12:00 AM)
Average58 °F84%30.09 "Hg
* Reported Jan 17 5:00 PM — Feb 1 5:00 PM, Siwan, Weather by CustomWeather, © 2014

Note: Actual official high and low records may vary slightly from our data, if they occured in-between our weather recording intervals... More about our weather records

Advertising

Siwan weather history for previous 24 hours

 ConditionsComfort  
Time TempWeatherWind HumidityBarometerVisibility
5:00 PM
Feb 1
68 °FHaze.No wind46%30.04 "Hg2 mi
4:00 PM70 °FHaze.2 mph40%30.04 "Hg2 mi
3:00 PM72 °FHaze.3 mph36%30.04 "Hg3 mi
2:00 PM72 °FHaze.3 mph38%30.04 "Hg3 mi
12:00 PM64 °FHaze.3 mph68%30.12 "Hg3 mi
10:00 AM59 °FHaze.2 mph68%30.12 "Hg1 mi
9:30 AM55 °FFog.No wind77%30.12 "Hg1 mi
9:00 AM54 °FFog.1 mph77%30.12 "Hg1 mi
8:00 AM52 °FFog.No wind88%30.09 "Hg1 mi
7:00 AM48 °FFog.No wind94%30.09 "Hg1 mi
5:00 AM50 °FFog.No wind88%30.07 "Hg1 mi
4:00 AM50 °FFog.No wind88%30.07 "HgN/A
12:00 AM54 °FFog.No wind88%30.09 "Hg1 mi
11:00 PM
Jan 31
55 °FFog.No wind88%30.09 "Hg1 mi
10:00 PM55 °FFog.2 mph94%30.09 "Hg1 mi
9:00 PM59 °FFog.No wind82%30.07 "Hg1 mi
8:00 PM59 °FHaze.No wind82%30.07 "Hg2 mi
6:00 PM64 °FHaze.No wind60%30.04 "Hg2 mi
Weather by CustomWeather, © 2014

See weather overviewHow to use our weather pages